Year,Month,Day,Hour,Minute,Value (Times are PST for temperature in C)
2016,06,16,00,00,9.40
2016,06,16,00,01,9.40
2016,06,16,00,02,9.40
2016,06,16,00,03,9.40
2016,06,16,00,04,9.40
2016,06,16,00,05,9.40
2016,06,16,00,06,9.40
2016,06,16,00,07,9.40
2016,06,16,00,08,9.30
2016,06,16,00,09,9.30
2016,06,16,00,10,9.30
2016,06,16,00,11,9.30
2016,06,16,00,12,9.30
2016,06,16,00,13,9.30
2016,06,16,00,14,9.30
2016,06,16,00,15,9.30
2016,06,16,00,16,9.30
2016,06,16,00,17,9.30
2016,06,16,00,18,9.20
2016,06,16,00,19,9.20
2016,06,16,00,20,9.20
2016,06,16,00,21,9.20
2016,06,16,00,22,9.20
2016,06,16,00,23,9.20
2016,06,16,00,24,9.20
2016,06,16,00,25,9.20
2016,06,16,00,26,9.20
2016,06,16,00,27,9.20
2016,06,16,00,28,9.20
2016,06,16,00,29,9.20
2016,06,16,00,30,9.20
2016,06,16,00,31,9.20
2016,06,16,00,32,9.20
2016,06,16,00,33,9.20
2016,06,16,00,34,9.20
2016,06,16,00,35,9.20
2016,06,16,00,36,9.20
2016,06,16,00,37,9.20
2016,06,16,00,38,9.20
2016,06,16,00,39,9.20
2016,06,16,00,40,9.20
2016,06,16,00,41,9.20
2016,06,16,00,42,9.20
2016,06,16,00,43,9.20
2016,06,16,00,44,9.20
2016,06,16,00,45,9.20
2016,06,16,00,46,9.20
2016,06,16,00,47,9.20
2016,06,16,00,48,9.20
2016,06,16,00,49,9.20
2016,06,16,00,50,9.20
2016,06,16,00,51,9.20
2016,06,16,00,52,9.20
2016,06,16,00,53,9.20
2016,06,16,00,54,9.20
2016,06,16,00,55,9.20
2016,06,16,00,56,9.20
2016,06,16,00,57,9.30
2016,06,16,00,58,9.30
2016,06,16,00,59,9.30
2016,06,16,01,00,9.30
2016,06,16,01,01,9.30
2016,06,16,01,02,9.30
2016,06,16,01,03,9.30
2016,06,16,01,04,9.30
2016,06,16,01,05,9.30
2016,06,16,01,06,9.30
2016,06,16,01,07,9.20
2016,06,16,01,08,9.20
2016,06,16,01,09,9.20
2016,06,16,01,10,9.20
2016,06,16,01,11,9.20
2016,06,16,01,12,9.20
2016,06,16,01,13,9.20
2016,06,16,01,14,9.20
2016,06,16,01,15,9.20
2016,06,16,01,16,9.20
2016,06,16,01,17,9.20
2016,06,16,01,18,9.20
2016,06,16,01,19,9.20
2016,06,16,01,20,9.20
2016,06,16,01,21,9.20
2016,06,16,01,22,9.20
2016,06,16,01,23,9.20
2016,06,16,01,24,9.20
2016,06,16,01,25,9.20
2016,06,16,01,26,9.20
2016,06,16,01,27,9.20
2016,06,16,01,28,9.30
2016,06,16,01,29,9.30
2016,06,16,01,30,9.30
2016,06,16,01,31,9.30
2016,06,16,01,32,9.30
2016,06,16,01,33,9.30
2016,06,16,01,34,9.30
2016,06,16,01,35,9.30
2016,06,16,01,36,9.30
2016,06,16,01,37,9.30
2016,06,16,01,38,9.30
2016,06,16,01,39,9.30
2016,06,16,01,40,9.30
2016,06,16,01,41,9.30
2016,06,16,01,42,9.30
2016,06,16,01,43,9.30
2016,06,16,01,44,9.30
2016,06,16,01,45,9.30
2016,06,16,01,46,9.30
2016,06,16,01,47,9.30
2016,06,16,01,48,9.30
2016,06,16,01,49,9.30
2016,06,16,01,50,9.30
2016,06,16,01,51,9.30
2016,06,16,01,52,9.30
2016,06,16,01,53,9.20
2016,06,16,01,54,9.20
2016,06,16,01,55,9.20
2016,06,16,01,56,9.20
2016,06,16,01,57,9.20
2016,06,16,01,58,9.20
2016,06,16,01,59,9.20
2016,06,16,02,00,9.20
2016,06,16,02,01,9.20
2016,06,16,02,02,9.20
2016,06,16,02,03,9.10
2016,06,16,02,04,9.10
2016,06,16,02,05,9.10
2016,06,16,02,06,9.10
2016,06,16,02,07,9.10
2016,06,16,02,08,9.10
2016,06,16,02,09,9.10
2016,06,16,02,10,9.10
2016,06,16,02,11,9.10
2016,06,16,02,12,9.00
2016,06,16,02,13,9.00
2016,06,16,02,14,9.00
2016,06,16,02,15,9.00
2016,06,16,02,16,9.00
2016,06,16,02,17,9.00
2016,06,16,02,18,9.00
2016,06,16,02,19,9.00
2016,06,16,02,20,9.00
2016,06,16,02,21,9.00
2016,06,16,02,22,9.00
2016,06,16,02,23,9.00
2016,06,16,02,24,8.90
2016,06,16,02,25,8.90
2016,06,16,02,26,8.90
2016,06,16,02,27,8.90
2016,06,16,02,28,8.80
2016,06,16,02,29,8.80
2016,06,16,02,30,8.80
2016,06,16,02,31,8.70
2016,06,16,02,32,8.70
2016,06,16,02,33,8.70
2016,06,16,02,34,8.70
2016,06,16,02,35,8.70
2016,06,16,02,36,8.60
2016,06,16,02,37,8.60
2016,06,16,02,38,8.60
2016,06,16,02,39,8.60
2016,06,16,02,40,8.60
2016,06,16,02,41,8.60
2016,06,16,02,42,8.60
2016,06,16,02,43,8.60
2016,06,16,02,44,8.50
2016,06,16,02,45,8.50
2016,06,16,02,46,8.50
2016,06,16,02,47,8.50
2016,06,16,02,48,8.50
2016,06,16,02,49,8.50
2016,06,16,02,50,8.50
2016,06,16,02,51,8.50
2016,06,16,02,52,8.50
2016,06,16,02,53,8.40
2016,06,16,02,54,8.40
2016,06,16,02,55,8.40
2016,06,16,02,56,8.40
2016,06,16,02,57,8.40
2016,06,16,02,58,8.40
2016,06,16,02,59,8.40
2016,06,16,03,00,8.30
2016,06,16,03,01,8.30
2016,06,16,03,02,8.30
2016,06,16,03,03,8.30
2016,06,16,03,04,8.30
2016,06,16,03,05,8.30
2016,06,16,03,06,8.30
2016,06,16,03,07,8.20
2016,06,16,03,08,8.20
2016,06,16,03,09,8.20
2016,06,16,03,10,8.20
2016,06,16,03,11,8.20
2016,06,16,03,12,8.20
2016,06,16,03,13,8.10
2016,06,16,03,14,8.10
2016,06,16,03,15,8.10
2016,06,16,03,16,8.10
2016,06,16,03,17,8.10
2016,06,16,03,18,8.10
2016,06,16,03,19,8.00
2016,06,16,03,20,8.00
2016,06,16,03,21,8.00
2016,06,16,03,22,8.00
2016,06,16,03,23,8.00
2016,06,16,03,24,7.90
2016,06,16,03,25,7.90
2016,06,16,03,26,7.90
2016,06,16,03,27,7.90
2016,06,16,03,28,7.90
2016,06,16,03,29,7.90
2016,06,16,03,30,7.90
2016,06,16,03,31,7.80
2016,06,16,03,32,7.80
2016,06,16,03,33,7.80
2016,06,16,03,34,7.80
2016,06,16,03,35,7.80
2016,06,16,03,36,7.70
2016,06,16,03,37,7.70
2016,06,16,03,38,7.70
2016,06,16,03,39,7.70
2016,06,16,03,40,7.60
2016,06,16,03,41,7.60
2016,06,16,03,42,7.60
2016,06,16,03,43,7.60
2016,06,16,03,44,7.50
2016,06,16,03,45,7.50
2016,06,16,03,46,7.50
2016,06,16,03,47,7.40
2016,06,16,03,48,7.40
2016,06,16,03,49,7.40
2016,06,16,03,50,7.40
2016,06,16,03,51,7.30
2016,06,16,03,52,7.30
2016,06,16,03,53,7.30
2016,06,16,03,54,7.30
2016,06,16,03,55,7.30
2016,06,16,03,56,7.30
2016,06,16,03,57,7.20
2016,06,16,03,58,7.20
2016,06,16,03,59,7.20
2016,06,16,04,00,7.20
2016,06,16,04,01,7.20
2016,06,16,04,02,7.20
2016,06,16,04,03,7.20
2016,06,16,04,04,7.20
2016,06,16,04,05,7.20
2016,06,16,04,06,7.10
2016,06,16,04,07,7.10
2016,06,16,04,08,7.10
2016,06,16,04,09,7.10
2016,06,16,04,10,7.10
2016,06,16,04,11,7.10
2016,06,16,04,12,7.10
2016,06,16,04,13,7.10
2016,06,16,04,14,7.00
2016,06,16,04,15,7.00
2016,06,16,04,16,7.00
2016,06,16,04,17,7.00
2016,06,16,04,18,7.00
2016,06,16,04,19,7.00
2016,06,16,04,20,7.00
2016,06,16,04,21,7.00
2016,06,16,04,22,7.00
2016,06,16,04,23,6.90
2016,06,16,04,24,6.90
2016,06,16,04,25,6.90
2016,06,16,04,26,6.90
2016,06,16,04,27,6.90
2016,06,16,04,28,6.90
2016,06,16,04,29,6.90
2016,06,16,04,30,6.90
2016,06,16,04,31,6.90
2016,06,16,04,32,6.80
2016,06,16,04,33,6.80
2016,06,16,04,34,6.80
2016,06,16,04,35,6.80
2016,06,16,04,36,6.80
2016,06,16,04,37,6.80
2016,06,16,04,38,6.80
2016,06,16,04,39,6.80
2016,06,16,04,40,6.80
2016,06,16,04,41,6.80
2016,06,16,04,42,6.80
2016,06,16,04,43,6.80
2016,06,16,04,44,6.80
2016,06,16,04,45,6.80
2016,06,16,04,46,6.80
2016,06,16,04,47,6.70
2016,06,16,04,48,6.70
2016,06,16,04,49,6.70
2016,06,16,04,50,6.70
2016,06,16,04,51,6.70
2016,06,16,04,52,6.70
2016,06,16,04,53,6.70
2016,06,16,04,54,6.70
2016,06,16,04,55,6.70
2016,06,16,04,56,6.70
2016,06,16,04,57,6.70
2016,06,16,04,58,6.70
2016,06,16,04,59,6.60
2016,06,16,05,00,6.60
2016,06,16,05,01,6.60
2016,06,16,05,02,6.60
2016,06,16,05,03,6.60
2016,06,16,05,04,6.60
2016,06,16,05,05,6.60
2016,06,16,05,06,6.60
2016,06,16,05,07,6.60
2016,06,16,05,08,6.60
2016,06,16,05,09,6.60
2016,06,16,05,10,6.60
2016,06,16,05,11,6.60
2016,06,16,05,12,6.60
2016,06,16,05,13,6.60
2016,06,16,05,14,6.50
2016,06,16,05,15,6.50
2016,06,16,05,16,6.50
2016,06,16,05,17,6.50
2016,06,16,05,18,6.50
2016,06,16,05,19,6.50
2016,06,16,05,20,6.50
2016,06,16,05,21,6.50
2016,06,16,05,22,6.50
2016,06,16,05,23,6.50
2016,06,16,05,24,6.50
2016,06,16,05,25,6.50
2016,06,16,05,26,6.50
2016,06,16,05,27,6.40
2016,06,16,05,28,6.40
2016,06,16,05,29,6.40
2016,06,16,05,30,6.40
2016,06,16,05,31,6.40
2016,06,16,05,32,6.40
2016,06,16,05,33,6.40
2016,06,16,05,34,6.40
2016,06,16,05,35,6.40
2016,06,16,05,36,6.40
2016,06,16,05,37,6.40
2016,06,16,05,38,6.40
2016,06,16,05,39,6.40
2016,06,16,05,40,6.40
2016,06,16,05,41,6.40
2016,06,16,05,42,6.40
2016,06,16,05,43,6.40
2016,06,16,05,44,6.40
2016,06,16,05,45,6.50
2016,06,16,05,46,6.50
2016,06,16,05,47,6.50
2016,06,16,05,48,6.50
2016,06,16,05,49,6.50
2016,06,16,05,50,6.50
2016,06,16,05,51,6.50
2016,06,16,05,52,6.60
2016,06,16,05,53,6.60
2016,06,16,05,54,6.60
2016,06,16,05,55,6.60
2016,06,16,05,56,6.60
2016,06,16,05,57,6.60
2016,06,16,05,58,6.60
2016,06,16,05,59,6.60
2016,06,16,06,00,6.60
2016,06,16,06,01,6.70
2016,06,16,06,02,6.70
2016,06,16,06,03,6.70
2016,06,16,06,04,6.70
2016,06,16,06,05,6.70
2016,06,16,06,06,6.80
2016,06,16,06,07,6.80
2016,06,16,06,08,6.80
2016,06,16,06,09,6.80
2016,06,16,06,10,6.80
2016,06,16,06,11,6.80
2016,06,16,06,12,6.80
2016,06,16,06,13,6.90
2016,06,16,06,14,6.90
2016,06,16,06,15,6.90
2016,06,16,06,16,6.90
2016,06,16,06,17,6.90
2016,06,16,06,18,6.90
2016,06,16,06,19,6.90
2016,06,16,06,20,7.00
2016,06,16,06,21,7.00
2016,06,16,06,22,7.00
2016,06,16,06,23,7.00
2016,06,16,06,24,7.00
2016,06,16,06,25,7.10
2016,06,16,06,26,7.10
2016,06,16,06,27,7.10
2016,06,16,06,28,7.10
2016,06,16,06,29,7.10
2016,06,16,06,30,7.10
2016,06,16,06,31,7.10
2016,06,16,06,32,7.20
2016,06,16,06,33,7.20
2016,06,16,06,34,7.20
2016,06,16,06,35,7.20
2016,06,16,06,36,7.20
2016,06,16,06,37,7.30
2016,06,16,06,38,7.30
2016,06,16,06,39,7.40
2016,06,16,06,40,7.40
2016,06,16,06,41,7.50
2016,06,16,06,42,7.50
2016,06,16,06,43,7.50
2016,06,16,06,44,7.60
2016,06,16,06,45,7.60
2016,06,16,06,46,7.70
2016,06,16,06,47,7.70
2016,06,16,06,48,7.80
2016,06,16,06,49,7.80
2016,06,16,06,50,7.80
2016,06,16,06,51,7.90
2016,06,16,06,52,7.90
2016,06,16,06,53,8.00
2016,06,16,06,54,8.00
2016,06,16,06,55,8.10
2016,06,16,06,56,8.10
2016,06,16,06,57,8.20
2016,06,16,06,58,8.20
2016,06,16,06,59,8.20
2016,06,16,07,00,8.30
2016,06,16,07,01,8.30
2016,06,16,07,02,8.40
2016,06,16,07,03,8.40
2016,06,16,07,04,8.50
2016,06,16,07,05,8.50
2016,06,16,07,06,8.60
2016,06,16,07,07,8.60
2016,06,16,07,08,8.70
2016,06,16,07,09,8.70
2016,06,16,07,10,8.80
2016,06,16,07,11,8.80
2016,06,16,07,12,8.80
2016,06,16,07,13,8.90
2016,06,16,07,14,8.90
2016,06,16,07,15,9.00
2016,06,16,07,16,9.10
2016,06,16,07,17,9.10
2016,06,16,07,18,9.20
2016,06,16,07,19,9.20
2016,06,16,07,20,9.30
2016,06,16,07,21,9.30
2016,06,16,07,22,9.40
2016,06,16,07,23,9.50
2016,06,16,07,24,9.60
2016,06,16,07,25,9.60
2016,06,16,07,26,9.70
2016,06,16,07,27,9.80
2016,06,16,07,28,9.90
2016,06,16,07,29,10.00
2016,06,16,07,30,10.10
2016,06,16,07,31,10.20
2016,06,16,07,32,10.20
2016,06,16,07,33,10.30
2016,06,16,07,34,10.40
2016,06,16,07,35,10.50
2016,06,16,07,36,10.60
2016,06,16,07,37,10.70
2016,06,16,07,38,10.80
2016,06,16,07,39,10.90
2016,06,16,07,40,10.90
2016,06,16,07,41,11.00
2016,06,16,07,42,11.10
2016,06,16,07,43,11.10
2016,06,16,07,44,11.20
2016,06,16,07,45,11.20
2016,06,16,07,46,11.30
2016,06,16,07,47,11.30
2016,06,16,07,48,11.40
2016,06,16,07,49,11.40
2016,06,16,07,50,11.50
2016,06,16,07,51,11.50
2016,06,16,07,52,11.60
2016,06,16,07,53,11.60
2016,06,16,07,54,11.70
2016,06,16,07,55,11.70
2016,06,16,07,56,11.70
2016,06,16,07,57,11.80
2016,06,16,07,58,11.80
2016,06,16,07,59,11.90
2016,06,16,08,00,11.90
2016,06,16,08,01,12.00
2016,06,16,08,02,12.00
2016,06,16,08,03,12.10
2016,06,16,08,04,12.10
2016,06,16,08,05,12.10
2016,06,16,08,06,12.20
2016,06,16,08,07,12.20
2016,06,16,08,08,12.20
2016,06,16,08,09,12.20
2016,06,16,08,10,12.20
2016,06,16,08,11,12.20
2016,06,16,08,12,12.30
2016,06,16,08,13,12.30
2016,06,16,08,14,12.30
2016,06,16,08,15,12.30
2016,06,16,08,16,12.30
2016,06,16,08,17,12.40
2016,06,16,08,18,12.40
2016,06,16,08,19,12.40
2016,06,16,08,20,12.40
2016,06,16,08,21,12.40
2016,06,16,08,22,12.50
2016,06,16,08,23,12.50
2016,06,16,08,24,12.50
2016,06,16,08,25,12.60
2016,06,16,08,26,12.60
2016,06,16,08,27,12.60
2016,06,16,08,28,12.60
2016,06,16,08,29,12.60
2016,06,16,08,30,12.60
2016,06,16,08,31,12.60
2016,06,16,08,32,12.60
2016,06,16,08,33,12.60
2016,06,16,08,34,12.70
2016,06,16,08,35,12.70
2016,06,16,08,36,12.70
2016,06,16,08,37,12.70
2016,06,16,08,38,12.80
2016,06,16,08,39,12.80
2016,06,16,08,40,12.80
2016,06,16,08,41,12.80
2016,06,16,08,42,12.90
2016,06,16,08,43,12.90
2016,06,16,08,44,12.90
2016,06,16,08,45,13.00
2016,06,16,08,46,13.00
2016,06,16,08,47,13.00
2016,06,16,08,48,13.00
2016,06,16,08,49,13.10
2016,06,16,08,50,13.10
2016,06,16,08,51,13.10
2016,06,16,08,52,13.20
2016,06,16,08,53,13.20
2016,06,16,08,54,13.20
2016,06,16,08,55,13.20
2016,06,16,08,56,13.20
2016,06,16,08,57,13.20
2016,06,16,08,58,13.20
2016,06,16,08,59,13.20
2016,06,16,09,00,13.20
2016,06,16,09,01,13.10
2016,06,16,09,02,13.10
2016,06,16,09,03,13.10
2016,06,16,09,04,13.10
2016,06,16,09,05,13.20
2016,06,16,09,06,13.20
2016,06,16,09,07,13.20
2016,06,16,09,08,13.20
2016,06,16,09,09,13.30
2016,06,16,09,10,13.30
2016,06,16,09,11,13.30
2016,06,16,09,12,13.40
2016,06,16,09,13,13.40
2016,06,16,09,14,13.40
2016,06,16,09,15,13.50
2016,06,16,09,16,13.50
2016,06,16,09,17,13.50
2016,06,16,09,18,13.50
2016,06,16,09,19,13.60
2016,06,16,09,20,13.60
2016,06,16,09,21,13.60
2016,06,16,09,22,13.60
2016,06,16,09,23,13.60
2016,06,16,09,24,13.60
2016,06,16,09,25,13.70
2016,06,16,09,26,13.70
2016,06,16,09,27,13.70
2016,06,16,09,28,13.70
2016,06,16,09,29,13.80
2016,06,16,09,30,13.80
2016,06,16,09,31,13.80
2016,06,16,09,32,13.80
2016,06,16,09,33,13.80
2016,06,16,09,34,13.80
2016,06,16,09,35,13.80
2016,06,16,09,36,13.90
2016,06,16,09,37,13.90
2016,06,16,09,38,14.00
2016,06,16,09,39,14.10
2016,06,16,09,40,14.10
2016,06,16,09,41,14.20
2016,06,16,09,42,14.20
2016,06,16,09,43,14.30
2016,06,16,09,44,14.30
2016,06,16,09,45,14.30
2016,06,16,09,46,14.30
2016,06,16,09,47,14.30
2016,06,16,09,48,14.30
2016,06,16,09,49,14.30
2016,06,16,09,50,14.30
2016,06,16,09,51,14.30
2016,06,16,09,52,14.30
2016,06,16,09,53,14.30
2016,06,16,09,54,14.30
2016,06,16,09,55,14.40
2016,06,16,09,56,14.40
2016,06,16,09,57,14.40
2016,06,16,09,58,14.40
2016,06,16,09,59,14.50
2016,06,16,10,00,14.50
2016,06,16,10,01,14.50
2016,06,16,10,02,14.60
2016,06,16,10,03,14.60
2016,06,16,10,04,14.60
2016,06,16,10,05,14.60
2016,06,16,10,06,14.70
2016,06,16,10,07,14.70
2016,06,16,10,08,14.70
2016,06,16,10,09,14.70
2016,06,16,10,10,14.60
2016,06,16,10,11,14.60
2016,06,16,10,12,14.60
2016,06,16,10,13,14.60
2016,06,16,10,14,14.60
2016,06,16,10,15,14.60
2016,06,16,10,16,14.70
2016,06,16,10,17,14.80
2016,06,16,10,18,14.80
2016,06,16,10,19,14.90
2016,06,16,10,20,15.00
2016,06,16,10,21,15.00
2016,06,16,10,22,15.10
2016,06,16,10,23,15.10
2016,06,16,10,24,15.20
2016,06,16,10,25,15.20
2016,06,16,10,26,15.20
2016,06,16,10,27,15.20
2016,06,16,10,28,15.20
2016,06,16,10,29,15.30
2016,06,16,10,30,15.20
2016,06,16,10,31,15.20
2016,06,16,10,32,15.10
2016,06,16,10,33,15.10
2016,06,16,10,34,15.00
2016,06,16,10,35,15.00
2016,06,16,10,36,15.00
2016,06,16,10,37,15.00
2016,06,16,10,38,14.90
2016,06,16,10,39,14.90
2016,06,16,10,40,14.90
2016,06,16,10,41,14.90
2016,06,16,10,42,15.00
2016,06,16,10,43,15.00
2016,06,16,10,44,15.10
2016,06,16,10,45,15.10
2016,06,16,10,46,15.20
2016,06,16,10,47,15.20
2016,06,16,10,48,15.30
2016,06,16,10,49,15.40
2016,06,16,10,50,15.40
2016,06,16,10,51,15.50
2016,06,16,10,52,15.60
2016,06,16,10,53,15.70
2016,06,16,10,54,15.80
2016,06,16,10,55,15.90
2016,06,16,10,56,16.00
2016,06,16,10,57,16.10
2016,06,16,10,58,16.20
2016,06,16,10,59,16.20
2016,06,16,11,00,16.30
2016,06,16,11,01,16.30
2016,06,16,11,02,16.30
2016,06,16,11,03,16.30
2016,06,16,11,04,16.20
2016,06,16,11,05,16.10
2016,06,16,11,06,16.10
2016,06,16,11,07,16.00
2016,06,16,11,08,16.00
2016,06,16,11,09,15.90
2016,06,16,11,10,15.90
2016,06,16,11,11,16.00
2016,06,16,11,12,16.00
2016,06,16,11,13,16.10
2016,06,16,11,14,16.20
2016,06,16,11,15,16.20
2016,06,16,11,16,16.20
2016,06,16,11,17,16.20
2016,06,16,11,18,16.20
2016,06,16,11,19,16.20
2016,06,16,11,20,16.20
2016,06,16,11,21,16.10
2016,06,16,11,22,16.10
2016,06,16,11,23,16.10
2016,06,16,11,24,16.10
2016,06,16,11,25,16.10
2016,06,16,11,26,16.10
2016,06,16,11,27,16.00
2016,06,16,11,28,16.00
2016,06,16,11,29,16.10
2016,06,16,11,30,16.10
2016,06,16,11,31,16.20
2016,06,16,11,32,16.20
2016,06,16,11,33,16.20
2016,06,16,11,34,16.20
2016,06,16,11,35,16.30
2016,06,16,11,36,16.30
2016,06,16,11,37,16.30
2016,06,16,11,38,16.30
2016,06,16,11,39,16.30
2016,06,16,11,40,16.30
2016,06,16,11,41,16.30
2016,06,16,11,42,16.30
2016,06,16,11,43,16.30
2016,06,16,11,44,16.30
2016,06,16,11,45,16.30
2016,06,16,11,46,16.30
2016,06,16,11,47,16.30
2016,06,16,11,48,16.30
2016,06,16,11,49,16.30
2016,06,16,11,50,16.40
2016,06,16,11,51,16.40
2016,06,16,11,52,16.40
2016,06,16,11,53,16.40
2016,06,16,11,54,16.50
2016,06,16,11,55,16.40
2016,06,16,11,56,16.30
2016,06,16,11,57,16.30
2016,06,16,11,58,16.30
2016,06,16,11,59,16.30
2016,06,16,12,00,16.30
2016,06,16,12,01,16.40
2016,06,16,12,02,16.40
2016,06,16,12,03,16.40
2016,06,16,12,04,16.50
2016,06,16,12,05,16.50
2016,06,16,12,06,16.50
2016,06,16,12,07,16.50
2016,06,16,12,08,16.60
2016,06,16,12,09,16.60
2016,06,16,12,10,16.70
2016,06,16,12,11,16.70
2016,06,16,12,12,16.70
2016,06,16,12,13,16.70
2016,06,16,12,14,16.70
2016,06,16,12,15,16.70
2016,06,16,12,16,16.70
2016,06,16,12,17,16.70
2016,06,16,12,18,16.70
2016,06,16,12,19,16.70
2016,06,16,12,20,16.70
2016,06,16,12,21,16.70
2016,06,16,12,22,16.80
2016,06,16,12,23,16.80
2016,06,16,12,24,16.80
2016,06,16,12,25,16.80
2016,06,16,12,26,16.70
2016,06,16,12,27,16.70
2016,06,16,12,28,16.60
2016,06,16,12,29,16.60
2016,06,16,12,30,16.60
2016,06,16,12,31,16.60
2016,06,16,12,32,16.60
2016,06,16,12,33,16.60
2016,06,16,12,34,16.60
2016,06,16,12,35,16.60
2016,06,16,12,36,16.60
2016,06,16,12,37,16.60
2016,06,16,12,38,16.50
2016,06,16,12,39,16.60
2016,06,16,12,40,16.60
2016,06,16,12,41,16.60
2016,06,16,12,42,16.60
2016,06,16,12,43,16.60
2016,06,16,12,44,16.70
2016,06,16,12,45,16.70
2016,06,16,12,46,16.70
2016,06,16,12,47,16.80
2016,06,16,12,48,16.80
2016,06,16,12,49,16.80
2016,06,16,12,50,16.90
2016,06,16,12,51,16.90
2016,06,16,12,52,16.90
2016,06,16,12,53,16.90
2016,06,16,12,54,16.90
2016,06,16,12,55,16.90
2016,06,16,12,56,16.90
2016,06,16,12,57,16.90
2016,06,16,12,58,16.90
2016,06,16,12,59,16.80
2016,06,16,13,00,16.80
2016,06,16,13,01,16.80
2016,06,16,13,02,16.80
2016,06,16,13,03,16.80
2016,06,16,13,04,16.70
2016,06,16,13,05,16.80
2016,06,16,13,06,16.80
2016,06,16,13,07,16.90
2016,06,16,13,08,16.90
2016,06,16,13,09,17.00
2016,06,16,13,10,17.00
2016,06,16,13,11,17.00
2016,06,16,13,12,17.10
2016,06,16,13,13,17.10
2016,06,16,13,14,17.10
2016,06,16,13,15,17.10
2016,06,16,13,16,17.10
2016,06,16,13,17,17.10
2016,06,16,13,18,17.10
2016,06,16,13,19,17.10
2016,06,16,13,20,17.10
2016,06,16,13,21,17.00
2016,06,16,13,22,17.00
2016,06,16,13,23,17.00
2016,06,16,13,24,17.00
2016,06,16,13,25,17.00
2016,06,16,13,26,17.00
2016,06,16,13,27,17.00
2016,06,16,13,28,17.00
2016,06,16,13,29,17.10
2016,06,16,13,30,17.10
2016,06,16,13,31,17.20
2016,06,16,13,32,17.30
2016,06,16,13,33,17.30
2016,06,16,13,34,17.30
2016,06,16,13,35,17.20
2016,06,16,13,36,17.00
2016,06,16,13,37,17.00
2016,06,16,13,38,16.90
2016,06,16,13,39,16.80
2016,06,16,13,40,16.80
2016,06,16,13,41,16.80
2016,06,16,13,42,16.80
2016,06,16,13,43,16.80
2016,06,16,13,44,16.90
2016,06,16,13,45,16.90
2016,06,16,13,46,16.90
2016,06,16,13,47,17.00
2016,06,16,13,48,17.10
2016,06,16,13,49,17.10
2016,06,16,13,50,17.20
2016,06,16,13,51,17.20
2016,06,16,13,52,17.20
2016,06,16,13,53,17.30
2016,06,16,13,54,17.30
2016,06,16,13,55,17.30
2016,06,16,13,56,17.30
2016,06,16,13,57,17.30
2016,06,16,13,58,17.20
2016,06,16,13,59,17.20
2016,06,16,14,00,17.10
2016,06,16,14,01,17.00
2016,06,16,14,02,16.90
2016,06,16,14,03,16.90
2016,06,16,14,04,16.80
2016,06,16,14,05,16.80
2016,06,16,14,06,16.80
2016,06,16,14,07,16.80
2016,06,16,14,08,16.80
2016,06,16,14,09,16.80
2016,06,16,14,10,16.80
2016,06,16,14,11,16.80
2016,06,16,14,12,16.90
2016,06,16,14,13,16.90
2016,06,16,14,14,16.90
2016,06,16,14,15,16.90
2016,06,16,14,16,16.80
2016,06,16,14,17,16.80
2016,06,16,14,18,16.80
2016,06,16,14,19,16.80
2016,06,16,14,20,16.70
2016,06,16,14,21,16.70
2016,06,16,14,22,16.70
2016,06,16,14,23,16.80
2016,06,16,14,24,16.80
2016,06,16,14,25,16.70
2016,06,16,14,26,16.70
2016,06,16,14,27,16.60
2016,06,16,14,28,16.60
2016,06,16,14,29,16.60
2016,06,16,14,30,16.60
2016,06,16,14,31,16.60
2016,06,16,14,32,16.60
2016,06,16,14,33,16.60
2016,06,16,14,34,16.60
2016,06,16,14,35,16.60
2016,06,16,14,36,16.70
2016,06,16,14,37,16.70
2016,06,16,14,38,16.70
2016,06,16,14,39,16.70
2016,06,16,14,40,16.70
2016,06,16,14,41,16.70
2016,06,16,14,42,16.70
2016,06,16,14,43,16.60
2016,06,16,14,44,16.60
2016,06,16,14,45,16.60
2016,06,16,14,46,16.60
2016,06,16,14,47,16.70
2016,06,16,14,48,16.70
2016,06,16,14,49,16.70
2016,06,16,14,50,16.70
2016,06,16,14,51,16.70
2016,06,16,14,52,16.70
2016,06,16,14,53,16.70
2016,06,16,14,54,16.70
2016,06,16,14,55,16.70
2016,06,16,14,56,16.70
2016,06,16,14,57,16.60
2016,06,16,14,58,16.60
2016,06,16,14,59,16.50
2016,06,16,15,00,16.50
2016,06,16,15,01,16.50
2016,06,16,15,02,16.40
2016,06,16,15,03,16.30
2016,06,16,15,04,16.30
2016,06,16,15,05,16.30
2016,06,16,15,06,16.30
2016,06,16,15,07,16.30
2016,06,16,15,08,16.30
2016,06,16,15,09,16.30
2016,06,16,15,10,16.30
2016,06,16,15,11,16.30
2016,06,16,15,12,16.30
2016,06,16,15,13,16.30
2016,06,16,15,14,16.30
2016,06,16,15,15,16.30
2016,06,16,15,16,16.30
2016,06,16,15,17,16.30
2016,06,16,15,18,16.30
2016,06,16,15,19,16.30
2016,06,16,15,20,16.40
2016,06,16,15,21,16.50
2016,06,16,15,22,16.50
2016,06,16,15,23,16.60
2016,06,16,15,24,16.70
2016,06,16,15,25,16.70
2016,06,16,15,26,16.70
2016,06,16,15,27,16.70
2016,06,16,15,28,16.70
2016,06,16,15,29,16.80
2016,06,16,15,30,16.80
2016,06,16,15,31,16.90
2016,06,16,15,32,16.90
2016,06,16,15,33,16.90
2016,06,16,15,34,16.90
2016,06,16,15,35,16.90
2016,06,16,15,36,16.90
2016,06,16,15,37,16.90
2016,06,16,15,38,16.90
2016,06,16,15,39,16.90
2016,06,16,15,40,16.80
2016,06,16,15,41,16.80
2016,06,16,15,42,16.80
2016,06,16,15,43,16.80
2016,06,16,15,44,16.80
2016,06,16,15,45,16.80
2016,06,16,15,46,16.90
2016,06,16,15,47,16.90
2016,06,16,15,48,17.00
2016,06,16,15,49,17.10
2016,06,16,15,50,17.10
2016,06,16,15,51,17.10
2016,06,16,15,52,17.10
2016,06,16,15,53,17.20
2016,06,16,15,54,17.20
2016,06,16,15,55,17.20
2016,06,16,15,56,17.30
2016,06,16,15,57,17.40
2016,06,16,15,58,17.40
2016,06,16,15,59,17.50
2016,06,16,16,00,17.50
2016,06,16,16,01,17.40
2016,06,16,16,02,17.40
2016,06,16,16,03,17.40
2016,06,16,16,04,17.30
2016,06,16,16,05,17.30
2016,06,16,16,06,17.30
2016,06,16,16,07,17.40
2016,06,16,16,08,17.40
2016,06,16,16,09,17.50
2016,06,16,16,10,17.50
2016,06,16,16,11,17.50
2016,06,16,16,12,17.60
2016,06,16,16,13,17.50
2016,06,16,16,14,17.50
2016,06,16,16,15,17.40
2016,06,16,16,16,17.40
2016,06,16,16,17,17.40
2016,06,16,16,18,17.30
2016,06,16,16,19,17.30
2016,06,16,16,20,17.30
2016,06,16,16,21,17.30
2016,06,16,16,22,17.30
2016,06,16,16,23,17.30
2016,06,16,16,24,17.40
2016,06,16,16,25,17.40
2016,06,16,16,26,17.40
2016,06,16,16,27,17.50
2016,06,16,16,28,17.50
2016,06,16,16,29,17.60
2016,06,16,16,30,17.60
2016,06,16,16,31,17.60
2016,06,16,16,32,17.60
2016,06,16,16,33,17.60
2016,06,16,16,34,17.60
2016,06,16,16,35,17.50
2016,06,16,16,36,17.50
2016,06,16,16,37,17.50
2016,06,16,16,38,17.50
2016,06,16,16,39,17.50
2016,06,16,16,40,17.50
2016,06,16,16,41,17.40
2016,06,16,16,42,17.40
2016,06,16,16,43,17.40
2016,06,16,16,44,17.40
2016,06,16,16,45,17.30
2016,06,16,16,46,17.20
2016,06,16,16,47,17.10
2016,06,16,16,48,17.10
2016,06,16,16,49,17.10
2016,06,16,16,50,17.10
2016,06,16,16,51,17.00
2016,06,16,16,52,17.00
2016,06,16,16,53,16.90
2016,06,16,16,54,16.90
2016,06,16,16,55,16.80
2016,06,16,16,56,16.80
2016,06,16,16,57,16.80
2016,06,16,16,58,16.80
2016,06,16,16,59,16.70
2016,06,16,17,00,16.70
2016,06,16,17,01,16.70
2016,06,16,17,02,16.60
2016,06,16,17,03,16.60
2016,06,16,17,04,16.50
2016,06,16,17,05,16.50
2016,06,16,17,06,16.50
2016,06,16,17,07,16.40
2016,06,16,17,08,16.40
2016,06,16,17,09,16.30
2016,06,16,17,10,16.30
2016,06,16,17,11,16.30
2016,06,16,17,12,16.30
2016,06,16,17,13,16.40
2016,06,16,17,14,16.30
2016,06,16,17,15,16.30
2016,06,16,17,16,16.30
2016,06,16,17,17,16.30
2016,06,16,17,18,16.30
2016,06,16,17,19,16.30
2016,06,16,17,20,16.30
2016,06,16,17,21,16.30
2016,06,16,17,22,16.30
2016,06,16,17,23,16.30
2016,06,16,17,24,16.30
2016,06,16,17,25,16.30
2016,06,16,17,26,16.30
2016,06,16,17,27,16.30
2016,06,16,17,28,16.40
2016,06,16,17,29,16.40
2016,06,16,17,30,16.40
2016,06,16,17,31,16.40
2016,06,16,17,32,16.40
2016,06,16,17,33,16.40
2016,06,16,17,34,16.40
2016,06,16,17,35,16.40
2016,06,16,17,36,16.40
2016,06,16,17,37,16.40
2016,06,16,17,38,16.40